Location: ???????
(55.4362°N, 38.1183°E)
Time: 06:51:54
(UTC+00:00)

Lacrosse 4 Rocket - Pass Details

Date: 28 October 2021
Orbit: 537 x 619 km, 68.0° (Epoch: 30 November)

Event Time Altitude Azimuth Distance (km) Brightness Sun altitude
Rises 14:28:06 0° 318° (NW) 2,806 5.3 -4.9°
Reaches altitude 10° 14:30:19 10° 316° (NW) 1,917 4.5 -5.3°
Maximum altitude 14:34:35 64° 235° (SW) 665 2.1 -5.8°
Drops below altitude 10° 14:38:55 10° 154° (SSE) 1,951 4.0 -6.4°
Sets 14:41:12 0° 152° (SSE) 2,861 4.8 -6.7°
